^^
Station Historical Data
Daily Summary for January 29, 2018 Units:  English    Metric   Both
« Previous Day
Next Day »
Daily Weekly Monthly Yearly Custom
  High: Low: Average:
Temperature: TemperatureF °F 57.0 °F 67 °F
Dew Point: DewpointF °F 53.8 °F 63.6 °F
Humidity: Humidity% 68% 89%
Wind Speed: WindSpeedMPHmph 0.0mph 0mph
Wind Gust: WindSpeedGustMPHmph - -
Wind- - North
Pressure: PressureIn in 29.90 in -
Precipitation: 0.28 in    
Historical Graphs
 
 
Tabular Data for January 29, 2018
Time Temperature Dew Point Pressure Wind Wind Speed Wind Gust Humidity Rainfall Rate (Hourly) solar Conditions
TemperatureF °F DewpointF °F PressureIn in Calm     Humidity% HourlyPrecipIn in SolarRadiationWatts/m^2 W/m2 Conditions
00:00 68.0 °F 68.0 °F 30.03 in Calm     100% 0.19 in 0.0 W/m2 OVC
00:05 68.0 °F 68.0 °F 30.01 in Calm     100% 0.02 in 0.0 W/m2 RA
00:10 68.0 °F 68.0 °F 30.01 in Calm     100% 0.02 in 0.0 W/m2 RA
00:15 68.0 °F 68.0 °F 30.01 in Calm     100% 0.02 in 0.0 W/m2 OVC
00:20 68.0 °F 68.0 °F 30.01 in Calm     100% 0.02 in 0.0 W/m2 OVC
00:25 68.0 °F 68.0 °F 30.01 in Calm     100% 0.02 in 0.0 W/m2 OVC
00:30 68.0 °F 68.0 °F 30.01 in Calm     100% 0.02 in 0.0 W/m2 OVC
00:35 68.0 °F 68.0 °F 30.01 in Calm     100% 0.02 in 0.0 W/m2 OVC
00:40 68.0 °F 68.0 °F 30.01 in Calm     100% 0.02 in 0.0 W/m2 OVC
00:45 68.0 °F 68.0 °F 30.01 in Calm     100% 0.02 in 0.0 W/m2 OVC
00:50 68.0 °F 68.0 °F 30.01 in Calm     100% 0.02 in 0.0 W/m2 OVC
00:55 68.0 °F 68.0 °F 30.01 in Calm     100% 0.02 in 0.0 W/m2 OVC
01:00 68.0 °F 68.0 °F 30.01 in Calm     100% 0.02 in 0.0 W/m2 OVC
01:05 68.0 °F 68.0 °F 29.99 in Calm     100% 0.02 in 0.0 W/m2 RA
01:10 68.0 °F 68.0 °F 29.99 in Calm     100% 0.02 in 0.0 W/m2 RA
01:15 68.0 °F 68.0 °F 29.99 in Calm     100% 0.02 in 0.0 W/m2 OVC
01:20 68.0 °F 68.0 °F 29.99 in Calm     100% 0.02 in 0.0 W/m2 OVC
01:25 68.0 °F 68.0 °F 29.99 in Calm     100% 0.02 in 0.0 W/m2 OVC
01:30 68.0 °F 68.0 °F 29.99 in Calm     100% 0.02 in 0.0 W/m2 OVC
01:35 68.0 °F 68.0 °F 29.99 in Calm     100% 0.02 in 0.0 W/m2 OVC
01:40 68.0 °F 68.0 °F 29.99 in Calm     100% 0.02 in 0.0 W/m2 OVC
01:45 68.0 °F 68.0 °F 29.99 in Calm     100% 0.02 in 0.0 W/m2 OVC
01:50 68.0 °F 68.0 °F 29.99 in Calm     100% 0.02 in 0.0 W/m2 OVC
01:55 68.0 °F 68.0 °F 29.99 in Calm     100% 0.02 in 0.0 W/m2 OVC
02:00 68.0 °F 68.0 °F 29.99 in Calm     100% 0.02 in 0.0 W/m2 OVC
02:05 68.0 °F 68.0 °F 29.95 in Calm     100% 0.01 in 0.0 W/m2 RA
02:10 68.0 °F 68.0 °F 29.95 in Calm     100% 0.01 in 0.0 W/m2 RA
02:15 68.0 °F 68.0 °F 29.95 in Calm     100% 0.01 in 0.0 W/m2 OVC
02:20 68.0 °F 68.0 °F 29.95 in Calm     100% 0.01 in 0.0 W/m2 OVC
02:25 68.0 °F 68.0 °F 29.95 in Calm     100% 0.01 in 0.0 W/m2 OVC
02:30 68.0 °F 68.0 °F 29.95 in Calm     100% 0.01 in 0.0 W/m2 OVC
02:35 68.0 °F 68.0 °F 29.95 in Calm     100% 0.01 in 0.0 W/m2 OVC
02:40 68.0 °F 68.0 °F 29.95 in Calm     100% 0.01 in 0.0 W/m2 OVC
02:45 68.0 °F 68.0 °F 29.95 in Calm     100% 0.01 in 0.0 W/m2 OVC
02:50 68.0 °F 68.0 °F 29.95 in Calm     100% 0.01 in 0.0 W/m2 OVC
02:55 68.0 °F 68.0 °F 29.95 in Calm     100% 0.01 in 0.0 W/m2 OVC
03:00 68.0 °F 68.0 °F 29.95 in Calm     100% 0.01 in 0.0 W/m2 OVC
03:05 68.0 °F 68.0 °F 29.93 in Calm     100% 0.01 in 0.0 W/m2 RA
03:10 68.0 °F 68.0 °F 29.93 in Calm     100% 0.01 in 0.0 W/m2 RA
03:15 68.0 °F 68.0 °F 29.93 in Calm     100% 0.01 in 0.0 W/m2 OVC
03:20 68.0 °F 68.0 °F 29.93 in Calm     100% 0.01 in 0.0 W/m2 OVC
03:25 68.0 °F 68.0 °F 29.93 in Calm     100% 0.01 in 0.0 W/m2 OVC
03:30 68.0 °F 68.0 °F 29.93 in Calm     100% 0.01 in 0.0 W/m2 OVC
03:35 68.0 °F 68.0 °F 29.93 in Calm     100% 0.01 in 0.0 W/m2 OVC
03:40 68.0 °F 68.0 °F 29.93 in Calm     100% 0.01 in 0.0 W/m2 OVC
03:45 68.0 °F 68.0 °F 29.93 in Calm     100% 0.01 in 0.0 W/m2 OVC
03:50 68.0 °F 68.0 °F 29.93 in Calm     100% 0.01 in 0.0 W/m2 OVC
03:55 68.0 °F 68.0 °F 29.93 in Calm     100% 0.01 in 0.0 W/m2 OVC
04:00 68.0 °F 68.0 °F 29.93 in Calm     100% 0.01 in 0.0 W/m2 OVC
04:05 68.0 °F 68.0 °F 29.92 in Calm     100% 0.01 in 0.0 W/m2 RA
04:10 68.0 °F 68.0 °F 29.92 in Calm     100% 0.01 in 0.0 W/m2 RA
04:15 68.0 °F 68.0 °F 29.92 in Calm     100% 0.01 in 0.0 W/m2 OVC
04:20 68.0 °F 68.0 °F 29.92 in Calm     100% 0.01 in 0.0 W/m2 OVC
04:25 68.0 °F 68.0 °F 29.92 in Calm     100% 0.01 in 0.0 W/m2 OVC
04:30 68.0 °F 68.0 °F 29.92 in Calm     100% 0.01 in 0.0 W/m2 OVC
04:35 68.0 °F 68.0 °F 29.92 in Calm     100% 0.01 in 0.0 W/m2 OVC
04:40 68.0 °F 68.0 °F 29.92 in Calm     100% 0.00 in 0.0 W/m2 OVC
04:45 68.0 °F 68.0 °F 29.92 in Calm     100% 0.01 in 0.0 W/m2 OVC
04:50 68.0 °F 68.0 °F 29.92 in Calm     100% 0.01 in 0.0 W/m2 OVC
04:55 68.0 °F 68.0 °F 29.92 in Calm     100% 0.01 in 0.0 W/m2 OVC
05:00 68.0 °F 68.0 °F 29.92 in Calm     100% 0.01 in 0.0 W/m2 OVC
05:05 68.0 °F 68.0 °F 29.90 in Calm     100% 0.01 in 0.0 W/m2 RA
05:10 68.0 °F 68.0 °F 29.90 in Calm     100% 0.00 in 0.0 W/m2 RA
05:15 68.0 °F 68.0 °F 29.90 in Calm     100% 0.01 in 0.0 W/m2 OVC
05:20 68.0 °F 68.0 °F 29.90 in Calm     100% 0.00 in 0.0 W/m2 OVC
05:25 68.0 °F 68.0 °F 29.90 in Calm     100% 0.01 in 0.0 W/m2 OVC
05:30 68.0 °F 68.0 °F 29.90 in Calm     100% 0.01 in 0.0 W/m2 OVC
05:35 68.0 °F 68.0 °F 29.90 in Calm     100% 0.01 in 0.0 W/m2 OVC
05:40 68.0 °F 68.0 °F 29.90 in Calm     100% 0.00 in 0.0 W/m2 OVC
05:45 68.0 °F 68.0 °F 29.90 in Calm     100% 0.01 in 0.0 W/m2 OVC
05:50 68.0 °F 68.0 °F 29.90 in Calm     100% 0.00 in 0.0 W/m2 +RA
05:55 68.0 °F 68.0 °F 29.90 in Calm     100% 0.01 in 0.0 W/m2 +RA
06:00 68.0 °F 68.0 °F 29.90 in Calm     100% 0.01 in 0.0 W/m2 +RA
06:05 69.1 °F 69.1 °F 29.91 in Calm     100% 0.14 in 0.0 W/m2 -RA
06:10 69.1 °F 69.1 °F 29.91 in Calm     100% 0.00 in 0.0 W/m2 -RA
06:15 69.1 °F 69.1 °F 29.91 in Calm     100% 0.14 in 0.0 W/m2 -RA
06:20 69.1 °F 69.1 °F 29.91 in Calm     100% 0.00 in 0.0 W/m2 -RA
06:25 69.1 °F 69.1 °F 29.91 in Calm     100% 0.14 in 0.0 W/m2 -RA
06:30 69.1 °F 69.1 °F 29.91 in Calm     100% 0.14 in 0.0 W/m2 -RA
06:35 69.1 °F 69.1 °F 29.91 in Calm     100% 0.14 in 0.0 W/m2 -RA
06:40 69.1 °F 69.1 °F 29.91 in Calm     100% 0.00 in 0.0 W/m2 -RA
06:45 69.1 °F 69.1 °F 29.91 in Calm     100% 0.14 in 0.0 W/m2 -RA
06:50 69.1 °F 69.1 °F 29.91 in Calm     100% 0.00 in 0.0 W/m2 -RA
06:55 69.1 °F 69.1 °F 29.91 in Calm     100% 0.14 in 0.0 W/m2 -RA
07:00 69.1 °F 69.1 °F 29.91 in Calm     100% 0.14 in 0.0 W/m2 -RA
07:05 69.1 °F 69.1 °F 29.93 in Calm     100% 0.03 in 0.0 W/m2 RA
07:10 69.1 °F 69.1 °F 29.93 in Calm     100% 0.03 in 0.0 W/m2 RA
07:15 69.1 °F 69.1 °F 29.93 in Calm     100% 0.03 in 0.0 W/m2 OVC
07:20 69.1 °F 69.1 °F 29.93 in Calm     100% 0.03 in 0.0 W/m2 OVC
07:25 69.1 °F 69.1 °F 29.93 in Calm     100% 0.03 in 0.0 W/m2 OVC
07:30 69.1 °F 69.1 °F 29.93 in Calm     100% 0.03 in 0.0 W/m2 OVC
07:35 69.1 °F 69.1 °F 29.93 in Calm     100% 0.03 in 0.0 W/m2 -RA
07:40 69.1 °F 69.1 °F 29.93 in Calm     100% 0.00 in 0.0 W/m2 -RA
07:45 69.1 °F 69.1 °F 29.93 in Calm     100% 0.03 in 0.0 W/m2 -RA
07:50 69.1 °F 69.1 °F 29.93 in Calm     100% 0.03 in 0.0 W/m2 -RA
07:55 69.1 °F 69.1 °F 29.93 in Calm     100% 0.03 in 0.0 W/m2 -RA
08:00 69.1 °F 69.1 °F 29.93 in Calm     100% 0.03 in 0.0 W/m2 -RA
08:05 69.1 °F 69.1 °F 29.95 in Calm     100% 0.03 in 0.0 W/m2 RA
08:10 69.1 °F 69.1 °F 29.95 in Calm     100% 0.00 in 0.0 W/m2 RA
08:15 69.1 °F 69.1 °F 29.95 in Calm     100% 0.00 in 0.0 W/m2 OVC
08:20 69.1 °F 69.1 °F 29.95 in Calm     100% 0.00 in 0.0 W/m2 OVC
08:25 69.1 °F 69.1 °F 29.95 in Calm     100% 0.00 in 0.0 W/m2 OVC
08:30 69.1 °F 69.1 °F 29.95 in Calm     100% 0.03 in 0.0 W/m2 OVC
08:35 69.1 °F 69.1 °F 29.95 in Calm     100% 0.00 in 0.0 W/m2 OVC
08:40 69.1 °F 69.1 °F 29.95 in Calm     100% 0.03 in 0.0 W/m2 OVC
08:45 69.1 °F 69.1 °F 29.95 in Calm     100% 0.03 in 0.0 W/m2 OVC
08:50 69.1 °F 69.1 °F 29.95 in Calm     100% 0.03 in 0.0 W/m2 OVC
08:55 69.1 °F 69.1 °F 29.95 in Calm     100% 0.03 in 0.0 W/m2 OVC
09:00 69.1 °F 69.1 °F 29.95 in Calm     100% 0.03 in 0.0 W/m2 OVC
09:05 69.1 °F 69.1 °F 29.96 in Calm     100% 0.00 in 0.0 W/m2 OVC
09:10 69.1 °F 69.1 °F 29.96 in Calm     100% 0.00 in 0.0 W/m2 OVC
09:15 69.1 °F 69.1 °F 29.96 in Calm     100% 0.00 in 0.0 W/m2 OVC
09:20 66.9 °F 66.9 °F 29.96 in Calm     100% 0.00 in 0.0 W/m2 OVC
09:25 66.9 °F 66.9 °F 29.96 in Calm     100% 0.00 in 0.0 W/m2 OVC
09:30 66.9 °F 66.9 °F 29.96 in Calm     100% 0.00 in 0.0 W/m2 OVC
09:35 66.9 °F 66.9 °F 29.96 in Calm     100% 0.00 in 0.0 W/m2 OVC
09:40 66.9 °F 66.9 °F 29.96 in Calm     100% 0.00 in 0.0 W/m2 OVC
09:45 66.9 °F 66.9 °F 29.96 in Calm     100% 0.00 in 0.0 W/m2 OVC
09:50 68.0 °F 66.8 °F 29.97 in Calm     96% 0.00 in 0.0 W/m2 OVC
09:55 68.0 °F 66.8 °F 29.97 in Calm     96% 0.00 in 0.0 W/m2 OVC
10:00 68.0 °F 66.8 °F 29.97 in Calm     96% 0.00 in 0.0 W/m2 OVC
10:05 68.0 °F 66.8 °F 29.97 in Calm     96% 0.00 in 0.0 W/m2 BKN
10:10 68.0 °F 66.8 °F 29.97 in Calm     96% 0.00 in 0.0 W/m2 BKN
10:15 68.0 °F 66.8 °F 29.97 in Calm     96% 0.00 in 0.0 W/m2 BKN
10:20 68.0 °F 66.8 °F 29.97 in Calm     96% 0.00 in 0.0 W/m2 BKN
10:25 68.0 °F 66.8 °F 29.97 in Calm     96% 0.00 in 0.0 W/m2 BKN
10:30 68.0 °F 66.8 °F 29.97 in Calm     96% 0.00 in 0.0 W/m2 BKN
10:35 69.1 °F 67.9 °F 29.97 in Calm     96% 0.00 in 0.0 W/m2 BKN
10:40 69.1 °F 67.9 °F 29.97 in Calm     96% 0.00 in 0.0 W/m2 BKN
10:45 69.1 °F 67.9 °F 29.97 in Calm     96% 0.00 in 0.0 W/m2 BKN
10:50 70.0 °F 66.9 °F 29.97 in Calm     90% 0.00 in 0.0 W/m2 BKN
10:55 70.0 °F 66.9 °F 29.97 in Calm     90% 0.00 in 0.0 W/m2 BKN
11:00 70.0 °F 66.9 °F 29.97 in Calm     90% 0.00 in 0.0 W/m2 BKN
11:05 69.1 °F 66.7 °F 29.98 in Calm     92% 0.00 in 0.0 W/m2 BKN
11:10 69.1 °F 66.7 °F 29.98 in Calm     92% 0.00 in 0.0 W/m2 BKN
11:15 69.1 °F 66.7 °F 29.98 in Calm     92% 0.00 in 0.0 W/m2 BKN
11:20 69.1 °F 66.7 °F 29.98 in Calm     92% 0.00 in 0.0 W/m2 BKN
11:25 69.1 °F 66.7 °F 29.98 in Calm     92% 0.00 in 0.0 W/m2 BKN
11:30 69.1 °F 66.7 °F 29.98 in Calm     92% 0.00 in 0.0 W/m2 BKN
11:35 69.1 °F 66.7 °F 29.98 in Calm     92% 0.00 in 0.0 W/m2 SCT
11:40 69.1 °F 66.7 °F 29.98 in Calm     92% 0.00 in 0.0 W/m2 SCT
11:45 69.1 °F 66.7 °F 29.98 in Calm     92% 0.00 in 0.0 W/m2 SCT
11:50 69.1 °F 66.7 °F 29.98 in Calm     92% 0.00 in 0.0 W/m2 BKN
11:55 69.1 °F 66.7 °F 29.98 in Calm     92% 0.00 in 0.0 W/m2 BKN
12:00 69.1 °F 66.7 °F 29.98 in Calm     92% 0.00 in 0.0 W/m2 BKN
12:05 70.0 °F 65.9 °F 29.97 in Calm     87% 0.00 in 0.0 W/m2 BKN
12:10 70.0 °F 65.9 °F 29.97 in Calm     87% 0.00 in 0.0 W/m2 BKN
12:15 70.0 °F 65.9 °F 29.97 in Calm     87% 0.00 in 0.0 W/m2 BKN
12:20 70.0 °F 65.9 °F 29.97 in Calm     87% 0.00 in 0.0 W/m2 BKN
12:25 70.0 °F 65.9 °F 29.97 in Calm     87% 0.00 in 0.0 W/m2 BKN
12:30 70.0 °F 65.9 °F 29.97 in Calm     87% 0.00 in 0.0 W/m2 BKN
12:35 70.0 °F 64.9 °F 29.96 in Calm     84% 0.00 in 0.0 W/m2 BKN
12:40 70.0 °F 64.9 °F 29.96 in Calm     84% 0.00 in 0.0 W/m2 BKN
12:45 70.0 °F 64.9 °F 29.96 in Calm     84% 0.00 in 0.0 W/m2 BKN
12:50 70.0 °F 64.9 °F 29.96 in Calm     84% 0.00 in 0.0 W/m2 BKN
12:55 70.0 °F 64.9 °F 29.96 in Calm     84% 0.00 in 0.0 W/m2 BKN
13:00 70.0 °F 64.9 °F 29.96 in Calm     84% 0.00 in 0.0 W/m2 BKN
13:05 71.1 °F 63.9 °F 29.95 in Calm     78% 0.00 in 0.0 W/m2 OVC
13:10 71.1 °F 63.9 °F 29.95 in Calm     78% 0.00 in 0.0 W/m2 OVC
13:15 71.1 °F 63.9 °F 29.95 in Calm     78% 0.00 in 0.0 W/m2 OVC
13:20 71.1 °F 63.9 °F 29.95 in Calm     78% 0.00 in 0.0 W/m2 OVC
13:25 71.1 °F 63.9 °F 29.95 in Calm     78% 0.00 in 0.0 W/m2 OVC
13:30 71.1 °F 63.9 °F 29.95 in Calm     78% 0.00 in 0.0 W/m2 OVC
13:35 71.1 °F 63.9 °F 29.95 in Calm     78% 0.00 in 0.0 W/m2 OVC
13:40 71.1 °F 63.9 °F 29.95 in Calm     78% 0.00 in 0.0 W/m2 OVC
13:45 71.1 °F 63.9 °F 29.95 in Calm     78% 0.00 in 0.0 W/m2 OVC
13:50 71.1 °F 63.9 °F 29.95 in Calm     78% 0.00 in 0.0 W/m2 OVC
13:55 71.1 °F 63.9 °F 29.95 in Calm     78% 0.00 in 0.0 W/m2 OVC
14:00 71.1 °F 63.9 °F 29.95 in Calm     78% 0.00 in 0.0 W/m2 OVC
14:05 72.0 °F 62.8 °F 29.93 in Calm     73% 0.00 in 0.0 W/m2 OVC
14:10 72.0 °F 62.8 °F 29.93 in Calm     73% 0.00 in 0.0 W/m2 OVC
14:15 72.0 °F 62.8 °F 29.93 in Calm     73% 0.00 in 0.0 W/m2 OVC
14:20 72.0 °F 62.8 °F 29.93 in Calm     73% 0.00 in 0.0 W/m2 OVC
14:25 72.0 °F 62.8 °F 29.93 in Calm     73% 0.00 in 0.0 W/m2 OVC
14:30 72.0 °F 62.8 °F 29.93 in Calm     73% 0.00 in 0.0 W/m2 OVC
14:35 72.0 °F 62.8 °F 29.93 in Calm     73% 0.00 in 0.0 W/m2 OVC
14:40 72.0 °F 62.8 °F 29.93 in Calm     73% 0.00 in 0.0 W/m2 OVC
14:45 72.0 °F 62.8 °F 29.93 in Calm     73% 0.00 in 0.0 W/m2 OVC
14:50 72.0 °F 62.8 °F 29.93 in Calm     73% 0.00 in 0.0 W/m2 OVC
14:55 72.0 °F 62.8 °F 29.93 in Calm     73% 0.00 in 0.0 W/m2 OVC
15:00 72.0 °F 62.8 °F 29.93 in Calm     73% 0.00 in 0.0 W/m2 OVC
15:05 72.0 °F 62.8 °F 29.93 in Calm     73% 0.00 in 0.0 W/m2 OVC
15:10 72.0 °F 62.8 °F 29.93 in Calm     73% 0.00 in 0.0 W/m2 OVC
15:15 72.0 °F 62.8 °F 29.93 in Calm     73% 0.00 in 0.0 W/m2 OVC
15:20 72.0 °F 62.8 °F 29.93 in Calm     73% 0.00 in 0.0 W/m2 OVC
15:25 72.0 °F 62.8 °F 29.93 in Calm     73% 0.00 in 0.0 W/m2 OVC
15:30 72.0 °F 62.8 °F 29.93 in Calm     73% 0.00 in 0.0 W/m2 OVC
15:35 72.0 °F 62.8 °F 29.93 in Calm     73% 0.00 in 0.0 W/m2 OVC
15:40 72.0 °F 62.8 °F 29.93 in Calm     73% 0.00 in 0.0 W/m2 OVC
15:45 72.0 °F 62.8 °F 29.93 in Calm     73% 0.00 in 0.0 W/m2 OVC
15:50 72.0 °F 62.8 °F 29.93 in Calm     73% 0.00 in 0.0 W/m2 OVC
15:55 72.0 °F 62.8 °F 29.93 in Calm     73% 0.00 in 0.0 W/m2 OVC
16:00 72.0 °F 62.8 °F 29.93 in Calm     73% 0.00 in 0.0 W/m2 OVC
16:05 73.0 °F 61.9 °F 29.94 in Calm     68% 0.00 in 0.0 W/m2 OVC
16:10 73.0 °F 61.9 °F 29.94 in Calm     68% 0.00 in 0.0 W/m2 OVC
16:15 73.0 °F 61.9 °F 29.94 in Calm     68% 0.00 in 0.0 W/m2 OVC
16:20 73.0 °F 61.9 °F 29.94 in Calm     68% 0.00 in 0.0 W/m2 OVC
16:25 73.0 °F 61.9 °F 29.94 in Calm     68% 0.00 in 0.0 W/m2 OVC
16:30 73.0 °F 61.9 °F 29.94 in Calm     68% 0.00 in 0.0 W/m2 OVC
16:35 73.0 °F 61.9 °F 29.94 in Calm     68% 0.00 in 0.0 W/m2 OVC
16:40 73.0 °F 61.9 °F 29.94 in Calm     68% 0.00 in 0.0 W/m2 OVC
16:45 73.0 °F 61.9 °F 29.94 in Calm     68% 0.00 in 0.0 W/m2 OVC
16:50 73.0 °F 61.9 °F 29.94 in Calm     68% 0.00 in 0.0 W/m2 OVC
16:55 73.0 °F 61.9 °F 29.94 in Calm     68% 0.00 in 0.0 W/m2 OVC
17:00 73.0 °F 61.9 °F 29.94 in Calm     68% 0.00 in 0.0 W/m2 OVC
17:05 69.1 °F 60.1 °F 29.96 in Calm     73% 0.00 in 0.0 W/m2 OVC
17:10 69.1 °F 60.1 °F 29.96 in Calm     73% 0.00 in 0.0 W/m2 OVC
17:15 69.1 °F 60.1 °F 29.96 in Calm     73% 0.00 in 0.0 W/m2 OVC
17:20 69.1 °F 60.1 °F 29.96 in Calm     73% 0.00 in 0.0 W/m2 -RA
17:25 69.1 °F 60.1 °F 29.96 in Calm     73% 0.00 in 0.0 W/m2 -RA
17:30 69.1 °F 60.1 °F 29.96 in Calm     73% 0.00 in 0.0 W/m2 -RA
17:35 69.1 °F 60.1 °F 29.96 in Calm     73% 0.00 in 0.0 W/m2 -RA
17:40 69.1 °F 60.1 °F 29.96 in Calm     73% 0.00 in 0.0 W/m2 -RA
17:45 69.1 °F 60.1 °F 29.96 in Calm     73% 0.00 in 0.0 W/m2 -RA
17:50 69.1 °F 60.1 °F 29.96 in Calm     73% 0.00 in 0.0 W/m2 OVC
17:55 69.1 °F 60.1 °F 29.96 in Calm     73% 0.00 in 0.0 W/m2 OVC
18:00 69.1 °F 60.1 °F 29.96 in Calm     73% 0.00 in 0.0 W/m2 OVC
18:05 66.9 °F 59.8 °F 29.99 in Calm     78% 0.00 in 0.0 W/m2 OVC
18:10 66.9 °F 59.8 °F 29.99 in Calm     78% 0.00 in 0.0 W/m2 OVC
18:15 66.9 °F 59.8 °F 29.99 in Calm     78% 0.00 in 0.0 W/m2 OVC
18:20 66.9 °F 59.8 °F 29.99 in Calm     78% 0.00 in 0.0 W/m2 OVC
18:25 66.9 °F 59.8 °F 29.99 in Calm     78% 0.00 in 0.0 W/m2 OVC
18:30 66.9 °F 59.8 °F 29.99 in Calm     78% 0.00 in 0.0 W/m2 OVC
18:35 66.9 °F 59.8 °F 29.99 in Calm     78% 0.00 in 0.0 W/m2 OVC
18:40 66.9 °F 59.8 °F 29.99 in Calm     78% 0.00 in 0.0 W/m2 OVC
18:45 66.9 °F 59.8 °F 29.99 in Calm     78% 0.00 in 0.0 W/m2 OVC
18:50 64.0 °F 59.8 °F 30.02 in Calm     86% 0.00 in 0.0 W/m2 OVC
18:55 64.0 °F 59.8 °F 30.02 in Calm     86% 0.00 in 0.0 W/m2 OVC
19:00 64.0 °F 59.8 °F 30.02 in Calm     86% 0.00 in 0.0 W/m2 OVC
19:05 63.0 °F 58.7 °F 30.03 in Calm     86% 0.00 in 0.0 W/m2 OVC
19:10 63.0 °F 58.7 °F 30.03 in Calm     86% 0.00 in 0.0 W/m2 OVC
19:15 63.0 °F 58.7 °F 30.03 in Calm     86% 0.00 in 0.0 W/m2 OVC
19:20 63.0 °F 58.7 °F 30.04 in Calm     86% 0.00 in 0.0 W/m2 OVC
19:25 63.0 °F 58.7 °F 30.04 in Calm     86% 0.00 in 0.0 W/m2 OVC
19:30 63.0 °F 58.7 °F 30.04 in Calm     86% 0.00 in 0.0 W/m2 OVC
19:35 63.0 °F 58.7 °F 30.04 in Calm     86% 0.00 in 0.0 W/m2 OVC
19:40 63.0 °F 58.7 °F 30.04 in Calm     86% 0.00 in 0.0 W/m2 OVC
19:45 63.0 °F 58.7 °F 30.04 in Calm     86% 0.00 in 0.0 W/m2 OVC
19:50 63.0 °F 58.7 °F 30.04 in Calm     86% 0.00 in 0.0 W/m2 OVC
19:55 63.0 °F 58.7 °F 30.04 in Calm     86% 0.00 in 0.0 W/m2 OVC
20:00 63.0 °F 58.7 °F 30.04 in Calm     86% 0.00 in 0.0 W/m2 OVC
20:05 61.0 °F 56.8 °F 30.06 in Calm     86% 0.00 in 0.0 W/m2 FEW
20:10 61.0 °F 56.8 °F 30.06 in Calm     86% 0.00 in 0.0 W/m2 FEW
20:15 61.0 °F 56.8 °F 30.06 in Calm     86% 0.00 in 0.0 W/m2 FEW
20:20 61.0 °F 56.8 °F 30.06 in Calm     86% 0.00 in 0.0 W/m2 FEW
20:25 61.0 °F 56.8 °F 30.06 in Calm     86% 0.00 in 0.0 W/m2 FEW
20:30 61.0 °F 56.8 °F 30.06 in Calm     86% 0.00 in 0.0 W/m2 FEW
20:35 61.0 °F 56.8 °F 30.06 in Calm     86% 0.00 in 0.0 W/m2 FEW
20:40 61.0 °F 56.8 °F 30.06 in Calm     86% 0.00 in 0.0 W/m2 FEW
20:45 61.0 °F 56.8 °F 30.06 in Calm     86% 0.00 in 0.0 W/m2 FEW
20:50 61.0 °F 54.8 °F 30.08 in Calm     80% 0.00 in 0.0 W/m2 FEW
20:55 61.0 °F 54.8 °F 30.08 in Calm     80% 0.00 in 0.0 W/m2 FEW
21:00 61.0 °F 54.8 °F 30.08 in Calm     80% 0.00 in 0.0 W/m2 FEW
21:05 61.0 °F 54.8 °F 30.08 in Calm     80% 0.00 in 0.0 W/m2 CLR
21:10 61.0 °F 54.8 °F 30.08 in Calm     80% 0.00 in 0.0 W/m2 CLR
21:15 61.0 °F 54.8 °F 30.08 in Calm     80% 0.00 in 0.0 W/m2 CLR
21:20 61.0 °F 54.8 °F 30.08 in Calm     80% 0.00 in 0.0 W/m2 CLR
21:25 61.0 °F 54.8 °F 30.08 in Calm     80% 0.00 in 0.0 W/m2 CLR
21:30 61.0 °F 54.8 °F 30.08 in Calm     80% 0.00 in 0.0 W/m2 CLR
21:35 59.0 °F 54.8 °F 30.08 in Calm     86% 0.00 in 0.0 W/m2 CLR
21:40 59.0 °F 54.8 °F 30.08 in Calm     86% 0.00 in 0.0 W/m2 CLR
21:45 59.0 °F 54.8 °F 30.08 in Calm     86% 0.00 in 0.0 W/m2 CLR
21:50 59.0 °F 54.8 °F 30.08 in Calm     86% 0.00 in 0.0 W/m2 CLR
21:55 59.0 °F 54.8 °F 30.08 in Calm     86% 0.00 in 0.0 W/m2 CLR
22:00 59.0 °F 54.8 °F 30.08 in Calm     86% 0.00 in 0.0 W/m2 CLR
22:05 57.9 °F 53.8 °F 30.10 in Calm     86% 0.00 in 0.0 W/m2 CLR
22:10 57.9 °F 53.8 °F 30.10 in Calm     86% 0.00 in 0.0 W/m2 CLR
22:15 57.9 °F 53.8 °F 30.10 in Calm     86% 0.00 in 0.0 W/m2 CLR
22:20 57.9 °F 53.8 °F 30.10 in Calm     86% 0.00 in 0.0 W/m2 CLR
22:25 57.9 °F 53.8 °F 30.10 in Calm     86% 0.00 in 0.0 W/m2 CLR
22:30 57.9 °F 53.8 °F 30.10 in Calm     86% 0.00 in 0.0 W/m2 CLR
22:35 57.9 °F 53.8 °F 30.10 in Calm     86% 0.00 in 0.0 W/m2 CLR
22:40 57.9 °F 53.8 °F 30.10 in Calm     86% 0.00 in 0.0 W/m2 CLR
22:45 57.9 °F 53.8 °F 30.10 in Calm     86% 0.00 in 0.0 W/m2 CLR
22:50 57.9 °F 53.8 °F 30.10 in Calm     86% 0.00 in 0.0 W/m2 CLR
22:55 57.9 °F 53.8 °F 30.10 in Calm     86% 0.00 in 0.0 W/m2 CLR
23:00 57.9 °F 53.8 °F 30.10 in Calm     86% 0.00 in 0.0 W/m2 CLR
23:05 57.0 °F 53.8 °F 30.10 in Calm     89% 0.00 in 0.0 W/m2 CLR
23:10 57.0 °F 53.8 °F 30.10 in Calm     89% 0.00 in 0.0 W/m2 CLR
23:15 57.0 °F 53.8 °F 30.10 in Calm     89% 0.00 in 0.0 W/m2 CLR
23:20 57.0 °F 53.8 °F 30.10 in Calm     89% 0.00 in 0.0 W/m2 CLR
23:25 57.0 °F 53.8 °F 30.10 in Calm     89% 0.00 in 0.0 W/m2 CLR
23:30 57.0 °F 53.8 °F 30.10 in Calm     89% 0.00 in 0.0 W/m2 CLR
23:35 57.0 °F 53.8 °F 30.10 in Calm     89% 0.00 in 0.0 W/m2 CLR
23:40 57.0 °F 53.8 °F 30.10 in Calm     89% 0.00 in 0.0 W/m2 CLR
23:45 57.0 °F 53.8 °F 30.10 in Calm     89% 0.00 in 0.0 W/m2 CLR
23:50 57.0 °F 53.8 °F 30.10 in Calm     89% 0.00 in 0.0 W/m2 CLR
23:55 57.0 °F 53.8 °F 30.10 in Calm     89% 0.00 in 0.0 W/m2 CLR
Lake Mary, FL, USA
Compliments of Weather Underground - 1.75 mb